TimeCDT,TemperatureF,Dew PointF,Humidity,Sea Level PressureIn,VisibilityMPH,Wind Direction,Wind SpeedMPH,Gust SpeedMPH,PrecipitationIn,Events,Conditions,WindDirDegrees,DateUTC
12:15 AM,53.1,33.4,47,30.19,10.0,Calm,Calm,-,N/A,,Clear,0,2012-09-24 05:15:00
12:35 AM,54.1,33.1,45,30.19,10.0,SSE,3.5,-,N/A,,Clear,150,2012-09-24 05:35:00
12:55 AM,55.2,33.3,43,30.18,10.0,SSE,5.8,-,N/A,,Clear,160,2012-09-24 05:55:00
1:15 AM,54.9,33.1,44,30.17,10.0,SSE,4.6,-,N/A,,Clear,150,2012-09-24 06:15:00
1:35 AM,55.0,33.1,43,30.18,10.0,SE,3.5,-,N/A,,Clear,140,2012-09-24 06:35:00
1:55 AM,53.4,33.8,47,30.18,10.0,ESE,3.5,-,N/A,,Clear,120,2012-09-24 06:55:00
2:15 AM,51.8,35.6,54,30.17,10.0,East,3.5,-,N/A,,Clear,100,2012-09-24 07:15:00
2:35 AM,51.8,34.7,52,30.17,10.0,East,3.5,-,N/A,,Clear,100,2012-09-24 07:35:00
2:55 AM,51.8,34.5,52,30.16,10.0,ESE,3.5,-,N/A,,Clear,110,2012-09-24 07:55:00
3:15 AM,51.8,34.3,51,30.15,10.0,Calm,Calm,-,N/A,,Clear,0,2012-09-24 08:15:00
3:35 AM,51.6,34.3,52,30.14,10.0,Calm,Calm,-,N/A,,Clear,0,2012-09-24 08:35:00
3:55 AM,51.6,34.2,51,30.14,10.0,Calm,Calm,-,N/A,,Clear,0,2012-09-24 08:55:00
4:15 AM,51.1,34.7,54,30.13,10.0,Calm,Calm,-,N/A,,Clear,0,2012-09-24 09:15:00
4:35 AM,51.1,34.3,53,30.13,10.0,Calm,Calm,-,N/A,,Clear,0,2012-09-24 09:35:00
4:55 AM,50.4,34.9,55,30.13,10.0,Calm,Calm,-,N/A,,Clear,0,2012-09-24 09:55:00
5:15 AM,48.9,36.5,62,30.13,10.0,Calm,Calm,-,N/A,,Clear,0,2012-09-24 10:15:00
5:35 AM,49.8,35.6,58,30.12,10.0,Calm,Calm,-,N/A,,Clear,0,2012-09-24 10:35:00
5:55 AM,49.6,35.2,58,30.12,10.0,Calm,Calm,-,N/A,,Clear,0,2012-09-24 10:55:00
6:15 AM,48.0,35.8,63,30.11,10.0,Calm,Calm,-,N/A,,Clear,0,2012-09-24 11:15:00
6:35 AM,47.3,35.8,64,30.11,10.0,Calm,Calm,-,N/A,,Clear,0,2012-09-24 11:35:00
6:55 AM,46.6,35.8,66,30.11,10.0,Calm,Calm,-,N/A,,Clear,0,2012-09-24 11:55:00
7:15 AM,45.1,36.9,73,30.10,10.0,Calm,Calm,-,N/A,,Clear,0,2012-09-24 12:15:00
7:35 AM,46.0,36.9,70,30.10,10.0,Calm,Calm,-,N/A,,Clear,0,2012-09-24 12:35:00
7:55 AM,47.8,36.5,65,30.10,10.0,Calm,Calm,-,N/A,,Clear,0,2012-09-24 12:55:00
8:15 AM,47.7,37.6,68,30.09,10.0,East,3.5,-,N/A,,Clear,80,2012-09-24 13:15:00
8:35 AM,50.2,37.0,61,30.08,10.0,East,3.5,-,N/A,,Clear,100,2012-09-24 13:35:00
8:55 AM,52.3,38.3,59,30.07,10.0,SE,4.6,-,N/A,,Clear,130,2012-09-24 13:55:00
9:15 AM,56.5,36.3,47,30.06,10.0,SE,8.1,-,N/A,,Clear,140,2012-09-24 14:15:00
9:35 AM,59.0,37.4,45,30.05,10.0,SSE,9.2,-,N/A,,Clear,160,2012-09-24 14:35:00
9:55 AM,60.8,36.9,41,30.04,10.0,SSE,9.2,-,N/A,,Clear,160,2012-09-24 14:55:00
10:15 AM,63.0,37.2,38,30.03,10.0,SSE,10.4,-,N/A,,Clear,150,2012-09-24 15:15:00
10:35 AM,64.4,37.8,37,30.03,10.0,South,10.4,-,N/A,,Clear,170,2012-09-24 15:35:00
10:55 AM,64.9,38.5,38,30.02,10.0,South,8.1,-,N/A,,Clear,170,2012-09-24 15:55:00
11:15 AM,67.5,38.5,35,30.01,10.0,South,5.8,-,N/A,,Clear,170,2012-09-24 16:15:00
11:35 AM,70.0,40.5,34,30.00,10.0,South,9.2,-,N/A,,Clear,170,2012-09-24 16:35:00
11:55 AM,70.3,41.4,35,30.00,10.0,South,8.1,-,N/A,,Clear,170,2012-09-24 16:55:00
12:15 PM,70.9,42.6,36,29.99,10.0,South,5.8,-,N/A,,Clear,170,2012-09-24 17:15:00
12:35 PM,71.6,43.2,36,29.97,10.0,SSW,4.6,-,N/A,,Clear,200,2012-09-24 17:35:00
12:55 PM,72.1,43.7,36,29.97,10.0,Calm,Calm,-,N/A,,Clear,0,2012-09-24 17:55:00
1:15 PM,74.5,44.1,34,29.95,10.0,SE,4.6,-,N/A,,Clear,140,2012-09-24 18:15:00
1:35 PM,73.4,44.6,36,29.95,10.0,Calm,Calm,-,N/A,,Clear,0,2012-09-24 18:35:00
1:55 PM,73.4,45.1,36,29.93,10.0,Calm,Calm,-,N/A,,Clear,0,2012-09-24 18:55:00
2:15 PM,74.3,46.0,36,29.92,10.0,South,4.6,-,N/A,,Clear,180,2012-09-24 19:15:00
2:35 PM,75.2,46.2,36,29.91,10.0,SSE,6.9,-,N/A,,Clear,160,2012-09-24 19:35:00
2:55 PM,75.6,46.0,35,29.91,10.0,SSW,4.6,-,N/A,,Clear,200,2012-09-24 19:55:00
3:15 PM,75.7,46.6,35,29.90,10.0,SSE,4.6,-,N/A,,Clear,150,2012-09-24 20:15:00
3:35 PM,75.7,46.6,35,29.89,10.0,SSE,3.5,-,N/A,,Clear,160,2012-09-24 20:35:00
3:55 PM,76.3,46.8,35,29.88,10.0,South,6.9,-,N/A,,Clear,170,2012-09-24 20:55:00
4:15 PM,76.5,46.8,35,29.88,10.0,ESE,4.6,-,N/A,,Clear,110,2012-09-24 21:15:00
4:35 PM,77.0,46.6,34,29.88,10.0,South,3.5,-,N/A,,Clear,180,2012-09-24 21:35:00
4:55 PM,76.5,47.3,36,29.88,10.0,SSE,6.9,-,N/A,,Clear,160,2012-09-24 21:55:00
5:15 PM,76.1,47.3,36,29.88,10.0,South,6.9,-,N/A,,Clear,180,2012-09-24 22:15:00
5:35 PM,75.7,46.9,36,29.87,10.0,SSE,6.9,-,N/A,,Clear,160,2012-09-24 22:35:00
5:55 PM,75.0,47.5,38,29.88,10.0,South,8.1,-,N/A,,Clear,170,2012-09-24 22:55:00
6:15 PM,73.8,48.0,40,29.88,10.0,South,6.9,-,N/A,,Clear,170,2012-09-24 23:15:00
6:35 PM,73.4,47.8,40,29.86,10.0,ESE,3.5,-,N/A,,Clear,120,2012-09-24 23:35:00
6:55 PM,72.3,48.4,43,29.86,10.0,SSE,4.6,-,N/A,,Clear,150,2012-09-24 23:55:00
7:15 PM,71.6,48.7,44,29.85,10.0,SE,5.8,-,N/A,,Clear,130,2012-09-25 00:15:00
7:55 PM,70.3,48.9,47,29.84,10.0,SSE,5.8,-,N/A,,Clear,150,2012-09-25 00:55:00
8:15 PM,70.7,48.7,46,29.82,10.0,ESE,11.5,-,N/A,,Scattered Clouds,120,2012-09-25 01:15:00
8:35 PM,70.2,48.7,46,29.84,10.0,SSE,6.9,-,N/A,,Scattered Clouds,160,2012-09-25 01:35:00
8:55 PM,69.8,48.7,47,29.84,10.0,SE,3.5,-,N/A,,Clear,140,2012-09-25 01:55:00
9:15 PM,68.9,49.1,49,29.85,10.0,Calm,Calm,-,N/A,,Clear,0,2012-09-25 02:15:00
9:35 PM,68.4,49.5,51,29.85,10.0,Calm,Calm,-,N/A,,Clear,0,2012-09-25 02:35:00
9:55 PM,67.6,49.5,52,29.84,10.0,Calm,Calm,-,N/A,,Clear,0,2012-09-25 02:55:00
10:15 PM,65.1,51.3,61,29.85,10.0,North,4.6,-,N/A,,Clear,10,2012-09-25 03:15:00
10:35 PM,63.5,52.7,68,29.85,10.0,Calm,Calm,-,N/A,,Clear,0,2012-09-25 03:35:00
10:55 PM,64.4,51.6,63,29.85,10.0,East,3.5,-,N/A,,Clear,100,2012-09-25 03:55:00
11:55 PM,62.6,51.8,68,29.83,10.0,Calm,Calm,-,N/A,,Scattered Clouds,0,2012-09-25 04:55:00